Notices

What's New in latest Release from April 7th, 2021:

- Updated Glossary, including Speed of Maximum Gust, and Total Hourly Precipitation

- Updated national and regional climate services offices contacts and prices information

- Addition of station inventory lists for 1981-2010, 1971-2000, and 1961-1990 Normals.

If you haven't already, please take our survey and provide feedback about our website: https://eccc.sondage-survey.ca/f/LanguageSelection.aspx?s=442ca660-fcf1-47c0-95a9-59707d6fd709

Hourly Data Report for July 17, 2018

TORONTO CITY
ONTARIO
Current Station Operator: ECCC - MSC

43°40'00.000" N
79°24'00.000" W
112.50 m
6158355
71508
XTO

Download Data

Hourly Data (July 2018)
Hourly Data Report for July 17, 2018
TIME
LST
Temp Definition
°C
Dew Point Definition
°C
Rel Hum Definition
%
Precip. Amount Definition
mm

Wind Dir Definition
10's deg

Wind Spd Definition
km/h
Visibility Definition
km
Stn Press Definition
kPa
Hmdx Definition


Wind Chill Definition


Weather Definition


00:00 22.7 20.0 84 0.0 LegendMM LegendMM   99.64 30   LegendNANA
01:00 23.3 19.6 80 0.0 LegendMM LegendMM   99.62 31   LegendNANA
02:00 22.4 19.3 83 0.0 LegendMM LegendMM   99.60 29   LegendNANA
03:00 22.3 18.7 80 0.0 LegendMM LegendMM   99.61 29   LegendNANA
04:00 21.7 15.1 66 0.0 LegendMM LegendMM   99.62 26   LegendNANA
05:00 21.5 14.1 63 0.0 LegendMM LegendMM   99.68 25   LegendNANA
06:00 21.7 12.1 55 0.0 LegendMM LegendMM   99.74     LegendNANA
07:00 22.7 10.9 47 0.0 LegendMM LegendMM   99.79     LegendNANA
08:00 23.1 10.2 44 0.0 LegendMM LegendMM   99.82     LegendNANA
09:00 25.0 9.0 36 0.0 LegendMM LegendMM   99.82 26   LegendNANA
10:00 25.5 9.9 37 0.0 LegendMM LegendMM   99.86 27   LegendNANA
11:00 25.6 8.7 34 0.0 LegendMM LegendMM   99.90 26   LegendNANA
12:00 26.4 7.3 30 0.0 LegendMM LegendMM   99.88 27   LegendNANA
13:00 26.7 8.3 31 0.0 LegendMM LegendMM   99.84 27   LegendNANA
14:00 27.9 8.2 29 0.0 LegendMM LegendMM   99.82 28   LegendNANA
15:00 28.2 8.8 30 0.0 LegendMM LegendMM   99.83 29   LegendNANA
16:00 26.5 9.4 34 0.0 LegendMM LegendMM   99.81 28   LegendNANA
17:00 25.5 11.4 41 0.0 LegendMM LegendMM   99.83 27   LegendNANA
18:00 24.8 9.3 37 0.0 LegendMM LegendMM   99.89 26   LegendNANA
19:00 23.3 8.8 40 0.0 LegendMM LegendMM   99.98     LegendNANA
20:00 22.0 10.1 47 0.0 LegendMM LegendMM   100.04     LegendNANA
21:00 21.3 10.0 49 0.0 LegendMM LegendMM   100.08     LegendNANA
22:00 20.6 10.1 51 0.0 LegendMM LegendMM   100.12     LegendNANA
23:00 20.0 10.5 54 0.0 LegendMM LegendMM   100.12     LegendNANA

Notes on Data Quality.

Legend

  • E = Estimated
  • M = Missing
  • NA = Not Available*
  • [empty] = Indicates an unobserved value
Date modified: